Retour au catalogue

STARLINK-3692

ActifCommunicationsVLEO
NORAD 51958·PAYLOAD·🇺🇸 United States

Lancé Mar 9, 2022 depuis Cape Canaveral Space Force Station

Loading…

Prochains Passages (prochaines 24 heures)

TLE

FraisSource: CelesTrak SupGP

Époque: Sep 15, 2026, 02:35 UTC

1 51958C 22025C   26258.10812500 -.00037254  00000+0 -11981-2 0  2581
2 51958  53.1589 212.0474 0001338  86.9907  32.6006 15.31718037    19

Suivez STARLINK-3692 en temps réel avec AllMySat

Download on the App Store